Time,TemperatureF,DewpointF,PressureIn,WindDirection,WindDirectionDegrees,WindSpeedMPH,WindSpeedGustMPH,Humidity,HourlyPrecipIn,Conditions,Clouds,dailyrainin,SolarRadiationWatts/m^2,SoftwareType,DateUTC
2013-12-27 00:42:00,30.0,24.0,30.29,WSW,242,4.0,5.0,76,-99.99,,,-99.99,0.000000,,2013-12-27 07:42:00,
2013-12-27 00:52:00,30.0,24.0,30.29,WSW,242,4.0,5.0,76,-99.99,,,-99.99,0.000000,,2013-12-27 07:52:00,
2013-12-27 01:02:00,30.0,24.0,30.29,WSW,242,4.0,5.0,76,-99.99,,,-99.99,0.000000,,2013-12-27 08:02:00,
2013-12-27 01:42:00,29.0,23.0,30.30,West,277,3.0,5.0,77,-99.99,,,-99.99,0.000000,,2013-12-27 08:42:00,
2013-12-27 01:52:00,29.0,23.0,30.30,West,277,3.0,5.0,77,-99.99,,,-99.99,0.000000,,2013-12-27 08:52:00,
2013-12-27 02:11:00,28.0,23.0,30.30,West,265,3.0,4.0,81,-99.99,,,-99.99,0.000000,,2013-12-27 09:11:00,
2013-12-27 02:43:00,28.0,23.0,30.31,West,259,3.0,4.0,81,-99.99,,,-99.99,0.000000,,2013-12-27 09:43:00,
2013-12-27 03:12:00,29.0,23.0,30.30,WNW,298,2.0,4.0,78,-99.99,,,-99.99,0.000000,,2013-12-27 10:12:00,
2013-12-27 03:53:00,31.0,23.0,30.31,SSW,203,4.0,4.0,71,-99.99,,,-99.99,0.000000,,2013-12-27 10:53:00,
2013-12-27 04:02:00,31.0,23.0,30.31,SSW,203,4.0,4.0,71,-99.99,,,-99.99,0.000000,,2013-12-27 11:02:00,
2013-12-27 05:42:00,29.0,23.0,30.30,WSW,244,2.0,4.0,75,-99.99,,,-99.99,0.000000,,2013-12-27 12:42:00,
2013-12-27 06:42:00,25.0,21.0,30.31,West,275,3.0,4.0,85,-99.99,,,-99.99,0.000000,,2013-12-27 13:42:00,
2013-12-27 06:53:00,25.0,21.0,30.31,West,275,3.0,4.0,85,-99.99,,,-99.99,0.000000,,2013-12-27 13:53:00,
2013-12-27 07:02:00,25.0,21.0,30.31,West,275,3.0,4.0,85,-99.99,,,-99.99,0.000000,,2013-12-27 14:02:00,
2013-12-27 09:43:00,38.0,26.0,30.37,ESE,109,2.0,4.0,62,-99.99,,,-99.99,293.579987,,2013-12-27 16:43:00,
2013-12-27 14:22:00,52.0,16.0,30.28,ENE,64,2.0,6.0,23,-99.99,,,-99.99,472.790009,,2013-12-27 21:22:00,
2013-12-27 14:33:00,52.0,16.0,30.28,ENE,64,2.0,6.0,23,-99.99,,,-99.99,472.790009,,2013-12-27 21:33:00,
2013-12-27 14:43:00,52.0,16.0,30.28,ENE,64,2.0,6.0,23,-99.99,,,-99.99,472.790009,,2013-12-27 21:43:00,
2013-12-27 16:53:00,47.0,19.0,30.25,SW,228,3.0,5.0,31,-99.99,,,-99.99,17.430000,,2013-12-27 23:53:00,
2013-12-27 17:02:00,47.0,19.0,30.25,SW,228,3.0,5.0,31,-99.99,,,-99.99,17.430000,,2013-12-28 00:02:00,
2013-12-27 17:22:00,43.0,18.0,30.25,SW,234,4.0,4.0,36,-99.99,,,-99.99,8.370000,,2013-12-28 00:22:00,
2013-12-27 17:42:00,41.0,18.0,30.25,WSW,250,4.0,6.0,39,-99.99,,,-99.99,4.180000,,2013-12-28 00:42:00,
2013-12-27 19:52:00,35.0,18.0,30.26,West,266,5.0,6.0,50,-99.99,,,-99.99,0.000000,,2013-12-28 02:52:00,
2013-12-27 20:02:00,35.0,18.0,30.26,West,266,5.0,6.0,50,-99.99,,,-99.99,0.000000,,2013-12-28 03:02:00,
2013-12-27 20:53:00,33.0,19.0,30.26,West,275,3.0,5.0,54,-99.99,,,-99.99,0.000000,,2013-12-28 03:53:00,
2013-12-27 21:12:00,32.0,19.0,30.26,WNW,293,3.0,6.0,57,-99.99,,,-99.99,0.000000,,2013-12-28 04:12:00,
2013-12-27 22:43:00,33.0,19.0,30.26,West,281,5.0,6.0,56,-99.99,,,-99.99,0.000000,,2013-12-28 05:43:00,
2013-12-27 22:53:00,33.0,19.0,30.26,West,281,5.0,6.0,56,-99.99,,,-99.99,0.000000,,2013-12-28 05:53:00,
2013-12-27 23:02:00,33.0,19.0,30.26,West,281,5.0,6.0,56,-99.99,,,-99.99,0.000000,,2013-12-28 06:02:00,
2013-12-27 23:52:00,32.0,19.0,30.24,West,264,4.0,6.0,59,-99.99,,,-99.99,0.000000,,2013-12-28 06:52:00,